• In Hungary
  • List of Countries
  • For 7 days
  • Water Temperature
  • Satellite Maps
  • Weather Map
  • News
  • Weather Widgets
  • user-avatar
    Login

    Hourly Weather Gorozhankino

    Today, 24 October, Wednesday

    Time Temperature Precipitation Wind Pressure Humidity
    00:00 +4°C° 0 mm 2 mps 732 mmHg 85%
    01:00 +3°C° 0 mm 2 mps 732 mmHg 86%
    02:00 +3°C° 0 mm 2 mps 731 mmHg 87%
    03:00 +3°C° 0.3 mm 2 mps 731 mmHg 88%
    04:00 +3°C° 0.3 mm 2 mps 730 mmHg 89%
    05:00 +3°C° 0.3 mm 2 mps 729 mmHg 90%
    06:00 +4°C° 0.4 mm 2 mps 729 mmHg 89%
    07:00 +3°C° 0.4 mm 3 mps 729 mmHg 87%
    08:00 +3°C° 0.4 mm 3 mps 728 mmHg 86%
    09:00 +3°C° 0.2 mm 3 mps 728 mmHg 83%
    10:00 +4°C° 0.2 mm 3 mps 728 mmHg 80%
    11:00 +4°C° 0.2 mm 3 mps 728 mmHg 77%
    12:00 +5°C° 0.2 mm 3 mps 728 mmHg 77%
    13:00 +5°C° 0.2 mm 3 mps 728 mmHg 76%
    14:00 +5°C° 0.2 mm 3 mps 728 mmHg 76%
    15:00 +5°C° 0.2 mm 2 mps 728 mmHg 80%
    16:00 +5°C° 0.2 mm 2 mps 728 mmHg 83%
    17:00 +5°C° 0.2 mm 2 mps 728 mmHg 86%
    18:00 +5°C° 0.2 mm 2 mps 728 mmHg 87%
    19:00 +5°C° 0.2 mm 2 mps 728 mmHg 89%
    20:00 +5°C° 0.2 mm 2 mps 728 mmHg 90%
    21:00 +5°C° 0.1 mm 2 mps 728 mmHg 91%
    22:00 +4°C° 0.1 mm 2 mps 727 mmHg 91%
    23:00 +4°C° 0.1 mm 2 mps 727 mmHg 92%

    Tomorrow, 25 October, Thursday

    Time Temperature Precipitation Wind Pressure Humidity
    00:00 +4°C° 0.1 mm 2 mps 727 mmHg 92%
    01:00 +3°C° 0.1 mm 3 mps 727 mmHg 92%
    02:00 +3°C° 0.1 mm 3 mps 727 mmHg 92%
    03:00 +3°C° 0.2 mm 3 mps 727 mmHg 92%
    04:00 +3°C° 0.2 mm 3 mps 727 mmHg 91%
    05:00 +3°C° 0.2 mm 4 mps 726 mmHg 91%
    06:00 +3°C° 0.3 mm 4 mps 726 mmHg 89%
    07:00 +3°C° 0.3 mm 4 mps 726 mmHg 88%
    08:00 +2°C° 0.3 mm 5 mps 726 mmHg 86%
    09:00 +2°C° 0.3 mm 5 mps 726 mmHg 84%
    10:00 +2°C° 0.3 mm 5 mps 726 mmHg 82%
    11:00 +2°C° 0.3 mm 5 mps 727 mmHg 80%
    12:00 +2°C° 0.2 mm 5 mps 727 mmHg 79%
    13:00 +2°C° 0.2 mm 5 mps 727 mmHg 78%
    14:00 +2°C° 0.2 mm 5 mps 727 mmHg 78%
    15:00 +2°C° 0.1 mm 5 mps 727 mmHg 78%
    16:00 +1°C° 0.1 mm 5 mps 727 mmHg 78%
    17:00 +1°C° 0.1 mm 5 mps 727 mmHg 79%
    18:00 +1°C° 0.1 mm 5 mps 727 mmHg 79%
    19:00 0°C° 0.1 mm 5 mps 728 mmHg 79%
    20:00 0°C° 0.1 mm 5 mps 728 mmHg 80%
    21:00 0°C° 0.1 mm 5 mps 728 mmHg 80%
    22:00 0°C° 0.1 mm 5 mps 728 mmHg 81%
    23:00 0°C° 0.1 mm 5 mps 728 mmHg 81%

    Day after tomorrow, 26 October, Friday

    Time Temperature Precipitation Wind Pressure Humidity
    00:00 -1°C° 0 mm 5 mps 729 mmHg 82%
    01:00 -1°C° 0 mm 5 mps 729 mmHg 82%
    02:00 -1°C° 0 mm 4 mps 729 mmHg 83%
    03:00 -1°C° 0 mm 4 mps 729 mmHg 86%
    04:00 -2°C° 0 mm 4 mps 730 mmHg 88%
    05:00 -2°C° 0 mm 4 mps 730 mmHg 90%
    06:00 -2°C° 0 mm 4 mps 730 mmHg 89%
    07:00 -1°C° 0 mm 4 mps 730 mmHg 87%
    08:00 -1°C° 0 mm 5 mps 731 mmHg 85%
    09:00 0°C° 0 mm 5 mps 731 mmHg 83%
    10:00 0°C° 0 mm 5 mps 731 mmHg 81%
    11:00 +1°C° 0 mm 5 mps 732 mmHg 78%
    12:00 +1°C° 0 mm 4 mps 732 mmHg 78%
    13:00 +1°C° 0 mm 4 mps 732 mmHg 77%
    14:00 +1°C° 0 mm 4 mps 732 mmHg 76%
    15:00 +1°C° 0 mm 4 mps 733 mmHg 78%
    16:00 +2°C° 0 mm 3 mps 733 mmHg 80%
    17:00 +1°C° 0 mm 3 mps 733 mmHg 81%
    18:00 +1°C° 0 mm 3 mps 733 mmHg 82%
    19:00 +1°C° 0 mm 3 mps 734 mmHg 83%
    20:00 0°C° 0 mm 4 mps 734 mmHg 84%
    21:00 0°C° 0 mm 4 mps 734 mmHg 84%
    22:00 0°C° 0 mm 4 mps 735 mmHg 84%
    23:00 0°C° 0 mm 4 mps 735 mmHg 84%

    27 October, Saturday

    Time Temperature Precipitation Wind Pressure Humidity
    00:00 0°C° 0 mm 4 mps 735 mmHg 86%
    01:00 -1°C° 0 mm 4 mps 736 mmHg 88%
    02:00 -1°C° 0 mm 4 mps 736 mmHg 90%
    03:00 -1°C° 0 mm 4 mps 736 mmHg 88%
    04:00 +1°C° 0 mm 3 mps 736 mmHg 86%
    05:00 +1°C° 0 mm 3 mps 736 mmHg 84%
    06:00 +1°C° 0 mm 3 mps 736 mmHg 85%
    07:00 +1°C° 0 mm 3 mps 736 mmHg 85%
    08:00 +1°C° 0 mm 3 mps 736 mmHg 86%
    09:00 +1°C° 0.1 mm 3 mps 735 mmHg 85%
    10:00 +1°C° 0.1 mm 4 mps 734 mmHg 84%
    11:00 +1°C° 0.1 mm 4 mps 734 mmHg 82%
    12:00 +2°C° 0.7 mm 5 mps 733 mmHg 83%
    13:00 +2°C° 0.7 mm 5 mps 732 mmHg 84%
    14:00 +2°C° 0.7 mm 5 mps 730 mmHg 85%
    15:00 +3°C° 1 mm 4 mps 730 mmHg 87%
    16:00 +3°C° 1 mm 4 mps 729 mmHg 88%
    17:00 +3°C° 1 mm 4 mps 728 mmHg 90%
    18:00 +3°C° 0.5 mm 4 mps 728 mmHg 89%
    19:00 +4°C° 0.5 mm 4 mps 728 mmHg 88%
    20:00 +4°C° 0.5 mm 4 mps 728 mmHg 88%
    21:00 +2°C° 0.1 mm 5 mps 729 mmHg 87%
    22:00 +2°C° 0.1 mm 5 mps 730 mmHg 87%
    23:00 +1°C° 0.1 mm 6 mps 732 mmHg 86%

    28 October, Sunday

    Time Temperature Precipitation Wind Pressure Humidity
    00:00 0°C° 0.4 mm 7 mps 733 mmHg 85%
    01:00 -1°C° 0.4 mm 7 mps 735 mmHg 84%
    02:00 -2°C° 0.4 mm 7 mps 737 mmHg 82%
    03:00 -2°C° 0.1 mm 7 mps 738 mmHg 82%
    04:00 -3°C° 0.1 mm 6 mps 739 mmHg 82%
    05:00 -2°C° 0.1 mm 5 mps 741 mmHg 81%
    06:00 -2°C° 0 mm 5 mps 742 mmHg 81%
    07:00 -2°C° 0 mm 5 mps 743 mmHg 81%
    08:00 -3°C° 0 mm 4 mps 744 mmHg 81%
    09:00 -2°C° 0 mm 4 mps 745 mmHg 78%
    10:00 -1°C° 0 mm 5 mps 746 mmHg 76%
    11:00 0°C° 0 mm 5 mps 747 mmHg 73%
    12:00 0°C° 0 mm 5 mps 747 mmHg 71%
    13:00 0°C° 0 mm 4 mps 748 mmHg 70%
    14:00 0°C° 0 mm 4 mps 749 mmHg 68%
    15:00 -1°C° 0 mm 4 mps 749 mmHg 73%
    16:00 0°C° 0 mm 3 mps 750 mmHg 77%
    17:00 -1°C° 0 mm 3 mps 751 mmHg 82%
    18:00 -1°C° 0 mm 3 mps 751 mmHg 84%
    19:00 -2°C° 0 mm 3 mps 752 mmHg 86%
    20:00 -2°C° 0 mm 3 mps 752 mmHg 88%
    21:00 -2°C° 0 mm 2 mps 753 mmHg 89%
    22:00 -2°C° 0 mm 2 mps 753 mmHg 90%
    23:00 -3°C° 0 mm 2 mps 754 mmHg 90%

    29 October, Monday

    Time Temperature Precipitation Wind Pressure Humidity
    00:00 -3°C° 0 mm 2 mps 754 mmHg 91%
    01:00 -3°C° 0 mm 2 mps 755 mmHg 91%
    02:00 -3°C° 0 mm 2 mps 755 mmHg 92%
    03:00 -3°C° 0 mm 2 mps 755 mmHg 92%
    04:00 -3°C° 0 mm 2 mps 755 mmHg 92%
    05:00 -3°C° 0 mm 2 mps 756 mmHg 92%
    06:00 -1°C° 0 mm 1 mps 756 mmHg 90%
    07:00 -1°C° 0 mm 1 mps 756 mmHg 87%
    08:00 -1°C° 0 mm 1 mps 756 mmHg 85%
    09:00 0°C° 0 mm 1 mps 756 mmHg 79%
    10:00 +1°C° 0 mm 1 mps 757 mmHg 73%
    11:00 +2°C° 0 mm 1 mps 757 mmHg 67%
    12:00 +2°C° 0 mm 1 mps 757 mmHg 67%
    13:00 +2°C° 0 mm 1 mps 757 mmHg 66%
    14:00 +2°C° 0 mm 1 mps 757 mmHg 65%
    15:00 +1°C° 0 mm 1 mps 757 mmHg 69%
    16:00 +1°C° 0 mm 1 mps 757 mmHg 74%
    17:00 0°C° 0 mm 1 mps 757 mmHg 78%
    18:00 0°C° 0 mm 1 mps 756 mmHg 80%
    19:00 0°C° 0 mm 1 mps 756 mmHg 82%
    20:00 -2°C° 0 mm 2 mps 756 mmHg 84%
    21:00 -2°C° 0 mm 2 mps 756 mmHg 84%
    22:00 -3°C° 0 mm 2 mps 756 mmHg 85%
    23:00 -3°C° 0 mm 2 mps 756 mmHg 86%

    30 October, Tuesday

    Time Temperature Precipitation Wind Pressure Humidity
    00:00 -3°C° 0 mm 2 mps 756 mmHg 87%
    01:00 -4°C° 0 mm 3 mps 756 mmHg 88%
    02:00 -4°C° 0 mm 3 mps 756 mmHg 88%
    03:00 -4°C° 0 mm 3 mps 756 mmHg 88%
    04:00 -4°C° 0 mm 3 mps 756 mmHg 88%
    05:00 -4°C° 0 mm 4 mps 756 mmHg 87%
    06:00 -4°C° 0 mm 4 mps 756 mmHg 86%
    07:00 -4°C° 0 mm 4 mps 756 mmHg 84%
    08:00 -4°C° 0 mm 4 mps 756 mmHg 82%
    09:00 -3°C° 0 mm 4 mps 756 mmHg 79%
    10:00 -4°C° 0 mm 5 mps 756 mmHg 76%
    11:00 -2°C° 0 mm 5 mps 756 mmHg 72%
    12:00 -2°C° 0 mm 5 mps 757 mmHg 72%
    13:00 -2°C° 0 mm 5 mps 757 mmHg 72%
    14:00 -2°C° 0 mm 5 mps 757 mmHg 72%
    15:00 -4°C° 0.1 mm 5 mps 758 mmHg 74%
    16:00 -3°C° 0.1 mm 4 mps 758 mmHg 75%
    17:00 -3°C° 0.1 mm 4 mps 758 mmHg 77%
    18:00 -4°C° 0.1 mm 4 mps 759 mmHg 77%
    19:00 -4°C° 0.1 mm 4 mps 759 mmHg 77%
    20:00 -4°C° 0.1 mm 4 mps 760 mmHg 76%
    21:00 -4°C° 0 mm 4 mps 760 mmHg 76%
    22:00 -5°C° 0 mm 4 mps 761 mmHg 76%
    23:00 -5°C° 0 mm 4 mps 761 mmHg 76%
    Show more